Location: Allisons_Woods
(35.8920°N, 81.8170°W)
Time: 06:49:24
(UTC-05:00)

Daily predictions for brighter satellites

Satellite Brightness Start Highest point End
(mag) Time Altitude Azimuth Time Altitude Azimuth Time Altitude Azimuth
Timation 2 Rocket 4.3 17:31:39 10° NNW 17:38:24 55° ENE 17:45:06 10° SE
NOSS 2-1 (D) 3.3 17:35:59 10° SSW 17:39:46 88° WNW 17:43:55 10° NNE
SPOT 3 Rocket 3.7 17:35:13 10° SSE 17:40:13 51° ENE 17:45:13 10° N
NOSS 2-1 (C) 3.3 17:36:38 10° SSW 17:40:27 90° NW 17:44:36 10° NNE
BREEZE M DEB (TANK) 3.6 17:27:08 10° SW 17:40:39 90° ESE 17:44:21 10° NE
COSMOS 2487 2.4 17:39:31 10° NNW 17:43:07 76° ENE 17:46:41 10° SSE
Cosmos 1812 4.4 17:46:15 10° SSW 17:49:49 36° W 17:53:24 10° NNW
Meteor 2-4 Rocket 4.3 17:46:08 10° SSE 17:50:52 32° E 17:55:34 10° NNE
Cosmos 1455 Rocket 4.2 17:49:38 10° NNW 17:53:55 49° W 17:58:11 10° SSW
Nadezhda 3 Rocket 4.0 17:47:57 10° S 17:54:04 67° E 18:00:18 10° NNE
Cosmos 1975 3.2 17:51:20 10° NNW 17:55:22 71° W 17:59:22 10° S
Meteor 1-13 Rocket 4.3 17:49:52 10° S 17:55:31 69° E 18:01:19 10° NNE
Delta 2 Rocket 3.0 17:53:47 10° W 17:57:17 87° S 18:01:05 10° E
NOSS 2-1 (E) 3.8 17:55:25 10° SW 17:59:12 60° NW 18:03:25 10° NNE
Cosmos 1340 4.3 17:59:33 10° SE 18:01:47 15° E 18:02:53 14° ENE
SKYMED 2 4.2 17:59:23 10° NNE 18:03:25 36° E 18:07:24 10° SSE
MOS 1 4.3 17:59:16 10° SSE 18:04:56 88° WSW 18:10:36 10° NNW
CZ-4 R/B 2.1 18:03:02 10° S 18:07:08 60° W 18:11:13 10° NNW
Cosmos 1809 Rocket 4.5 18:03:22 10° N 18:09:32 89° W 18:15:37 10° S
GRACE-2 3.8 18:07:53 10° SSE 18:10:37 60° E 18:13:22 10° N
GRACE-1 3.8 18:08:18 10° S 18:11:02 63° E 18:13:47 10° N
CZ-4 R/B 4.4 18:07:21 10° SSE 18:11:29 73° ENE 18:15:38 10° N
MONITOR-E 4.4 18:10:16 10° SSE 18:13:20 49° ENE 18:16:27 10° N
IDEFIX/ARIANE 42P 2.8 18:08:30 10° S 18:13:40 75° WSW 18:18:52 10° NNW
MSX 3.8 18:08:02 10° SSE 18:13:45 71° ENE 18:19:29 10° N
Cosmos 1892 Rocket 4.4 18:10:09 10° SSE 18:13:54 29° E 18:17:17 12° NNE
Thor Agena Rocket 4.2 18:09:44 10° N 18:14:54 60° WNW 18:20:05 10° SSW
COSMOS 2441 4.4 18:10:14 10° SSE 18:15:01 61° ENE 18:19:51 10° N
CZ-2C R/B 2.9 18:10:49 10° S 18:15:48 69° WSW 18:20:58 10° NNW
USA 234 3.6 18:12:02 10° NE 18:18:30 65° NW 18:24:56 10° WSW
Cosmos 2278 Rocket 4.4 18:15:21 10° WSW 18:19:25 20° WNW 18:23:32 10° N
Cosmos 1726 Rocket 4.3 18:17:53 10° NNE 18:21:53 32° ENE 18:25:52 10° SE
Okean 1-7 Rocket 4.0 18:19:36 10° SSW 18:24:04 67° W 18:28:31 10° N
Cosmos 1666 2.9 18:20:54 10° N 18:24:39 45° E 18:28:23 10° SSE
SMAP 4.0 18:22:12 10° S 18:26:43 51° W 18:31:15 10° NNW
Cosmos 1833 Rocket 3.0 18:30:25 10° NNW 18:36:01 69° WSW 18:41:34 10° S
Tiangong 1 2.6 18:33:47 10° NW 18:36:12 21° N 18:36:16 21° N
NOSS 3-4 (A) 3.8 18:29:54 10° NNW 18:36:57 66° NE 18:44:24 10° SE
NOSS 3-4 (C) 3.8 18:30:00 10° NNW 18:37:03 65° NE 18:44:30 10° SE
Cosmos 1934 Rocket 3.9 18:31:06 10° N 18:37:19 65° E 18:43:34 10° SSE
Cosmos 1606 Rocket 3.5 18:37:27 10° N 18:41:55 67° E 18:46:21 10° SSE
BREEZE M DEB (TANK) 4.1 18:40:11 10° NW 18:44:17 42° NE 18:50:56 21° E
Cosmos 2082 Rocket 3.4 18:42:11 10° NW 18:47:33 45° WSW 18:52:55 10° S
Cosmos 407 Rocket 3.5 18:43:22 10° N 18:48:25 56° ENE 18:53:30 10° SSE
Cosmos 2056 Rocket 4.1 18:44:18 10° SSW 18:49:35 59° WNW 18:54:49 10° N
Cosmos 1025 Rocket 3.9 18:46:25 10° SSW 18:50:40 51° W 18:54:58 10° N
Cosmos 1743 4.4 18:47:38 10° NNW 18:51:10 35° W 18:54:39 10° SSW
COSMO-SKYMED 1 3.1 18:47:13 10° N 18:51:30 58° WNW 18:55:45 10° SSW
Meteor 1-28 Rocket 3.1 18:51:38 31° NNE 18:53:24 87° E 18:57:10 10° S
OAO 2 Rocket 4.4 18:53:53 10° SW 18:58:23 31° SSE 18:59:27 28° SE
Cosmos 676 Rocket 4.0 18:56:05 10° N 19:01:09 51° ENE 19:02:36 39° ESE
Orbus 7S? 3.6 18:59:32 10° SW 19:01:28 39° SSW 19:01:28 39° SSW
Cosmos 1484 Rocket 4.5 19:06:24 10° SSW 19:09:46 32° W 19:13:08 10° NNW
NOAA 12 4.0 19:08:49 10° SSE 19:14:06 90° ENE 19:19:23 10° NNW
Cosmos 1153 Rocket 4.3 19:12:47 10° N 19:18:54 65° E 19:24:58 10° SSE
Cosmos 2058 Rocket 3.2 19:15:37 10° N 19:20:04 72° W 19:24:27 10° S
Cosmos 2369 Rocket 2.1 19:15:39 10° SSW 19:21:18 89° WNW 19:22:50 51° NNE
Cosmos 1605 Rocket 4.1 19:18:32 10° N 19:24:47 75° W 19:30:54 10° S
ATLAS 3B CENTAUR R/B 4.0 19:13:47 10° W 19:33:19 52° SSW 19:37:23 31° SE
Cosmos 1452 Rocket 4.2 19:33:19 10° SW 19:38:24 50° WNW 19:39:51 39° NNW
Cosmos 1943 Rocket 3.3 19:40:26 10° S 19:43:25 32° S 19:43:25 32° S
FALCON 9 R/B 3.1 19:58:17 10° W 20:13:37 72° SW 20:13:37 72° SW
